time_stamp(utc),avg(mph),gust(mph),direction(deg),12m_air_temp(f),sonic_u(cm/s),sonic_v(cm/s),sonic_w(cm/s),pressure,2m_air_temp(f),pyranometer(W/m^2)
"2017-03-04 00:00:21+00",17.6,21.6,,32.6,-709,335,33,1027.88,32.2,0
"2017-03-04 00:05:21+00",20.2,27.2,,32.8,-777,492,75,1027.89,32.2,0
"2017-03-04 00:10:21+00",22.1,25.1,,32.7,-902,427,86,1027.95,32.2,0
"2017-03-04 00:15:21+00",18.8,21.8,,32.8,-740,440,66,1028,32.2,0
"2017-03-04 00:20:21+00",21.8,24.8,,32.9,-721,658,45,1028.17,32.4,0
"2017-03-04 00:25:21+00",17.0,19.0,,32.6,-542,525,73,1028.12,32.3,0
"2017-03-04 00:30:21+00",15.8,19.8,,32.6,-485,511,61,1028.2,32.2,0
"2017-03-04 00:35:21+00",16.2,18.2,,32.5,-550,464,57,1028.3,32.1,0
"2017-03-04 00:40:21+00",17.0,19.0,,32.5,-615,450,46,1028.47,32,0
"2017-03-04 00:45:21+00",16.5,18.5,,32.5,-592,462,67,1028.41,32,0
"2017-03-04 00:50:21+00",22.2,24.2,,32.5,-856,510,54,1028.39,31.9,0
"2017-03-04 00:55:21+00",19.0,21.0,,32.5,-748,412,53,1028.36,31.9,0
"2017-03-04 01:00:21+00",25.4,29.4,,32.6,-1017,516,79,1028.4,32,0
"2017-03-04 01:05:21+00",24.0,26.0,,32.7,-951,512,74,1028.44,32,0
"2017-03-04 01:10:21+00",24.2,29.2,,32.6,-930,556,68,1028.64,32,0
"2017-03-04 01:15:21+00",24.6,27.6,,32.8,-951,553,70,1028.67,32.1,0
"2017-03-04 01:20:21+00",24.8,28.8,,32.6,-976,520,85,1028.9,32.1,0
"2017-03-04 01:25:21+00",24.7,27.7,,32.6,-931,618,64,1028.95,32,0
"2017-03-04 01:30:21+00",24.1,27.1,,32.4,-878,622,72,1029,31.9,0
"2017-03-04 01:35:21+00",25.5,29.5,,32.4,-985,584,51,1028.98,31.9,0
"2017-03-04 01:40:21+00",24.4,27.4,,32.6,-955,567,87,1029,32,0
"2017-03-04 01:45:21+00",24.1,27.1,,32.5,-883,627,90,1029.11,31.9,0
"2017-03-04 01:50:21+00",24.0,26.0,,32.4,-943,494,65,1029.25,31.9,0
"2017-03-04 01:55:21+00",22.2,25.2,,32.5,-897,431,42,1029.26,32,0
"2017-03-04 02:00:21+00",22.1,26.1,,32.6,-923,400,90,1029.29,32.2,0
"2017-03-04 02:05:21+00",24.7,31.7,,32.5,-927,585,81,1029.41,32.2,0
"2017-03-04 02:10:21+00",23.3,27.3,,32.4,-924,502,76,1029.47,32.1,0
"2017-03-04 02:15:21+00",21.3,23.3,,32.4,-901,349,70,1029.43,32.2,0
"2017-03-04 02:20:21+00",25.2,30.2,,32.2,-989,553,71,1029.57,32,0
"2017-03-04 02:25:21+00",21.2,23.2,,32.3,-770,536,79,1029.56,31.9,0
"2017-03-04 02:30:21+00",21.4,24.4,,32,-817,492,72,1029.64,31.7,0
"2017-03-04 02:35:21+00",18.5,21.5,,32,-754,358,59,1029.67,31.7,0
"2017-03-04 02:40:21+00",21.5,25.5,,32,-848,450,59,1029.74,31.5,0
"2017-03-04 02:45:21+00",23.0,25.0,,31.9,-949,416,55,1029.81,31.5,0
"2017-03-04 02:50:21+00",23.5,26.5,,31.9,-905,540,59,1029.85,31.5,0
"2017-03-04 02:55:21+00",22.2,25.2,,31.9,-876,460,56,1029.88,31.5,0
"2017-03-04 03:00:21+00",21.4,26.4,,31.9,-815,514,67,1029.9,31.5,0
"2017-03-04 03:05:21+00",27.0,29.0,,31.7,-1067,585,66,1029.87,31.5,0
"2017-03-04 03:10:21+00",25.0,26.0,,31.6,-955,579,60,1029.97,31.3,0
"2017-03-04 03:15:21+00",23.1,28.1,,31.5,-842,600,95,1029.92,31.3,0
"2017-03-04 03:20:21+00",21.7,24.7,,31.6,-759,617,63,1030.03,31.3,0
"2017-03-04 03:25:21+00",24.8,27.8,,31.5,-860,701,49,1029.94,31.2,0
"2017-03-04 03:30:21+00",22.7,26.7,,31.6,-805,623,81,1029.95,31.3,0
"2017-03-04 03:35:21+00",25.1,28.1,,31.5,-895,687,89,1030,31.3,0
"2017-03-04 03:40:21+00",24.7,26.7,,31.4,-903,654,69,1030.17,31.2,0
"2017-03-04 03:45:21+00",23.8,27.8,,31.5,-829,663,52,1030.15,31.1,0
"2017-03-04 03:50:21+00",21.8,25.8,,31.3,-780,598,90,1030.22,31.1,0
"2017-03-04 03:55:21+00",27.8,29.8,,31.4,-949,794,66,1030.19,31.1,0
"2017-03-04 04:00:21+00",23.4,25.4,,31.3,-768,708,83,1030.28,31.1,0
"2017-03-04 04:05:21+00",21.3,25.3,,31.3,-737,615,73,1030.53,31.1,0
"2017-03-04 04:10:21+00",16.4,18.4,,30.8,-444,585,69,1030.85,30.8,0
"2017-03-04 04:15:21+00",17.0,19.0,,30.7,-502,575,51,1030.97,30.4,0
"2017-03-04 04:20:21+00",16.7,18.7,,30.3,-383,622,37,1031,30.1,0
"2017-03-04 04:25:21+00",15.5,18.5,,29.9,-355,573,31,1031.01,29.5,0
"2017-03-04 04:30:21+00",19.1,21.1,,29.7,-461,701,39,1031.08,29.3,0
"2017-03-04 04:35:21+00",19.4,21.4,,29.7,-425,752,41,1031.04,29.2,0
"2017-03-04 04:40:21+00",19.6,22.6,,29.6,-528,702,49,1031.15,29.2,0
"2017-03-04 04:45:21+00",17.9,20.9,,29.5,-493,629,42,1031.19,29.2,0
"2017-03-04 04:50:21+00",17.3,20.3,,29.4,-408,639,52,1031.3,29.2,0
"2017-03-04 04:55:21+00",18.9,22.9,,29.5,-585,605,39,1031.43,29,0
"2017-03-04 05:00:21+00",17.6,19.6,,29.4,-454,634,30,1031.55,29.1,0
"2017-03-04 05:05:21+00",15.2,17.2,,29.2,-312,582,43,1031.51,28.8,0
"2017-03-04 05:10:21+00",14.2,17.2,,29.1,-340,524,49,1031.55,28.6,0
"2017-03-04 05:15:21+00",17.2,18.2,,29,-397,646,29,1031.61,28.5,0
"2017-03-04 05:20:21+00",18.9,20.9,,29,-468,702,36,1031.77,28.5,0
"2017-03-04 05:25:21+00",17.2,19.2,,29.1,-495,582,52,1031.81,28.6,0
"2017-03-04 05:30:21+00",17.2,19.2,,29,-413,636,36,1031.89,28.5,0
"2017-03-04 05:35:21+00",18.7,21.7,,29.2,-572,605,49,1031.83,28.7,0
"2017-03-04 05:40:21+00",17.9,20.9,,29.2,-509,613,76,1031.91,28.9,0
"2017-03-04 05:45:21+00",21.2,23.2,,29.3,-671,668,57,1031.87,29,0
"2017-03-04 05:50:21+00",20.6,29.6,,29.1,-530,739,60,1031.95,28.9,0
"2017-03-04 05:55:21+00",18.5,21.5,,29,-516,656,56,1031.9,28.7,0
"2017-03-04 06:00:21+00",22.0,25.0,,29,-654,730,73,1031.96,28.8,0
"2017-03-04 06:05:21+00",20.5,23.5,,28.8,-627,655,48,1031.78,28.6,0
"2017-03-04 06:10:21+00",21.7,23.7,,28.9,-697,685,79,1031.94,28.6,0
"2017-03-04 06:15:21+00",21.2,24.2,,28.6,-722,614,52,1031.93,28.6,0
"2017-03-04 06:20:21+00",21.5,23.5,,28.6,-687,676,57,1031.95,28.5,0
"2017-03-04 06:25:21+00",21.6,23.6,,28.4,-661,704,56,1032.1,28.4,0
"2017-03-04 06:30:21+00",21.7,24.7,,28.3,-725,651,51,1032.1,28.3,0
"2017-03-04 06:35:21+00",26.0,28.0,,28.3,-713,907,55,1032,28.2,0
"2017-03-04 06:40:21+00",19.6,24.6,,28,-487,719,69,1032.1,28,0
"2017-03-04 06:45:21+00",22.1,25.1,,28.1,-648,742,54,1031.98,28,0
"2017-03-04 06:50:21+00",22.5,25.5,,28,-576,784,67,1032,28,0
"2017-03-04 06:55:21+00",22.9,26.9,,28.2,-744,713,67,1032.11,28,0
"2017-03-04 07:00:21+00",22.4,26.4,,28,-687,729,79,1032.17,27.9,0
"2017-03-04 07:05:21+00",22.2,26.2,,27.8,-641,737,52,1032.07,27.7,0
"2017-03-04 07:10:21+00",16.6,19.6,,27.3,-392,631,52,1032.24,27.3,0
"2017-03-04 07:15:21+00",17.4,20.4,,27.2,-430,651,28,1032.27,27,0
"2017-03-04 07:20:21+00",17.1,19.1,,27.3,-424,634,31,1032.5,26.9,0
"2017-03-04 07:25:21+00",17.3,20.3,,27.2,-423,637,33,1032.58,26.8,0
"2017-03-04 07:30:21+00",14.6,16.6,,27,-299,577,29,1032.67,26.7,0
"2017-03-04 07:35:21+00",17.2,20.2,,26.7,-434,641,42,1032.69,26.4,0
"2017-03-04 07:40:21+00",14.9,17.9,,26.8,-411,524,94,1032.57,26.3,0
"2017-03-04 07:45:21+00",20.1,24.1,,26.7,-560,696,71,1032.58,26.4,0
"2017-03-04 07:50:21+00",16.3,19.3,,26.5,-408,604,52,1032.69,26.2,0
"2017-03-04 07:55:21+00",16.6,19.6,,26.6,-526,545,82,1032.67,26.3,0
"2017-03-04 08:00:21+00",15.4,17.4,,26.4,-390,565,69,1032.74,26.1,0
"2017-03-04 08:05:21+00",17.1,19.1,,26.3,-398,641,50,1032.76,26,0
"2017-03-04 08:10:21+00",15.9,17.9,,26.2,-377,595,36,1032.72,25.8,0
"2017-03-04 08:15:21+00",17.8,20.8,,26.5,-591,528,93,1032.79,26,0
"2017-03-04 08:20:21+00",17.7,21.7,,26.5,-534,579,66,1033.02,26.1,0
"2017-03-04 08:25:21+00",20.6,24.6,,26.4,-606,689,75,1033.05,26.1,0
"2017-03-04 08:30:21+00",21.7,24.7,,26.4,-669,680,52,1033.15,26.2,0
"2017-03-04 08:35:21+00",20.0,23.0,,26.3,-699,583,90,1033.13,26.1,0
"2017-03-04 08:40:21+00",22.7,27.7,,26.2,-734,689,69,1033.22,26,0
"2017-03-04 08:45:21+00",21.6,23.6,,26,-629,728,58,1033.09,25.8,0
"2017-03-04 08:50:21+00",20.4,26.4,,25.8,-483,772,57,1033.3,25.6,0
"2017-03-04 08:55:21+00",16.8,20.8,,25.6,-446,613,83,1033.43,25.3,0
"2017-03-04 09:00:21+00",15.2,17.2,,25.5,-336,572,40,1033.45,25.1,0
"2017-03-04 09:05:21+00",20.6,25.6,,25.6,-668,631,70,1033.38,25.1,0
"2017-03-04 09:10:21+00",17.2,21.2,,25.4,-311,690,29,1033.54,25.1,0
"2017-03-04 09:15:21+00",17.3,22.3,,25.2,-420,656,39,1033.53,24.8,0
"2017-03-04 09:20:21+00",15.3,17.3,,25.1,-374,557,32,1033.7,24.5,0
"2017-03-04 09:25:21+00",18.6,20.6,,25.2,-467,671,60,1033.6,24.5,0
"2017-03-04 09:30:21+00",17.2,18.2,,25.2,-416,638,38,1033.68,24.6,0
"2017-03-04 09:35:21+00",14.8,16.8,,24.9,-376,538,40,1033.76,24.4,0
"2017-03-04 09:40:21+00",14.2,16.2,,24.9,-356,516,44,1033.85,24.3,0
"2017-03-04 09:45:21+00",11.4,13.4,,24.7,-274,421,36,1033.72,24.1,0
"2017-03-04 09:50:21+00",11.4,14.4,,24.7,-243,428,35,1033.79,24.1,0
"2017-03-04 09:55:21+00",15.1,16.1,,25,-431,502,27,1033.78,24.1,0
"2017-03-04 10:00:21+00",12.2,14.2,,25.2,-298,443,48,1033.82,24.4,0
"2017-03-04 10:05:21+00",15.3,17.3,,25.1,-459,499,31,1033.87,24.5,0
"2017-03-04 10:10:21+00",11.7,12.7,,25,-341,391,45,1034,24.5,0
"2017-03-04 10:15:21+00",12.7,14.7,,24.9,-447,357,34,1034.08,24.3,0
"2017-03-04 10:20:21+00",13.9,16.9,,24.9,-469,392,56,1034.11,24.4,0
"2017-03-04 10:25:21+00",15.2,17.2,,24.9,-541,417,64,1034.11,24.4,0
"2017-03-04 10:30:21+00",14.2,17.2,,24.8,-470,412,60,1034.22,24.4,0
"2017-03-04 10:35:21+00",13.8,15.8,,24.8,-458,407,58,1034.23,24.3,0
"2017-03-04 10:40:21+00",15.7,18.7,,24.6,-571,416,50,1034.29,24.2,0
"2017-03-04 10:45:21+00",17.1,18.1,,24.6,-567,507,40,1034.29,24.1,0
"2017-03-04 10:50:21+00",17.0,19.0,,24.5,-463,592,43,1034.23,24.1,0
"2017-03-04 10:55:21+00",18.4,21.4,,24.5,-512,624,21,1034.28,24,0
"2017-03-04 11:00:21+00",16.9,18.9,,24.4,-522,542,45,1034.28,24,0
"2017-03-04 11:05:21+00",15.5,18.5,,24.3,-506,470,35,1034.42,23.9,0
"2017-03-04 11:10:21+00",15.3,17.3,,24.3,-533,416,55,1034.44,23.9,0
"2017-03-04 11:15:21+00",16.5,18.5,,24.3,-582,462,45,1034.49,23.9,0
"2017-03-04 11:20:21+00",14.9,17.9,,24.2,-523,415,62,1034.42,23.8,0
"2017-03-04 11:25:21+00",15.4,16.4,,24.2,-572,386,66,1034.52,23.8,0
"2017-03-04 11:30:21+00",17.8,19.8,,24.2,-619,493,44,1034.65,23.8,0
"2017-03-04 11:35:21+00",18.0,20.0,,24.2,-607,529,47,1034.65,23.8,0
"2017-03-04 11:40:21+00",17.7,18.7,,24.2,-604,507,48,1034.74,23.8,0
"2017-03-04 11:45:21+00",16.3,18.3,,24.3,-604,420,42,1034.82,23.9,0
"2017-03-04 11:50:21+00",14.7,16.7,,24.3,-552,383,55,1034.92,23.9,0
"2017-03-04 11:55:21+00",16.3,18.3,,24.2,-541,484,42,1034.91,23.9,0
"2017-03-04 12:00:21+00",14.1,16.1,,24.1,-481,412,55,1035.05,23.9,15.4
"2017-03-04 12:05:21+00",14.4,15.4,,24.3,-492,417,38,1035.06,24.1,25.2
"2017-03-04 12:10:21+00",15.7,16.7,,24.3,-556,422,30,1035.06,24.3,33.5
"2017-03-04 12:15:21+00",12.6,14.6,,24.5,-480,305,55,1035.13,24.7,43.4
"2017-03-04 12:20:21+00",15.4,17.4,,24.7,-563,398,43,1035.08,25,55.5
"2017-03-04 12:25:21+00",16.0,19.0,,24.9,-610,371,54,1035.06,25.3,63.8
"2017-03-04 12:30:21+00",16.3,18.3,,24.8,-643,373,35,1035.11,25.4,75.4
"2017-03-04 12:35:21+00",15.3,18.3,,24.8,-585,359,39,1035.11,25.4,87.3
"2017-03-04 12:40:21+00",17.4,19.4,,24.8,-618,477,38,1035.25,25.6,97.5
"2017-03-04 12:45:21+00",16.1,20.1,,24.8,-537,472,25,1035.25,25.7,108.9
"2017-03-04 12:50:21+00",16.7,18.7,,24.5,-537,510,27,1035.28,25.4,121.7
"2017-03-04 12:55:21+00",16.8,19.8,,24.8,-476,566,58,1035.08,25.7,134
"2017-03-04 13:00:21+00",17.3,18.3,,24.8,-558,525,37,1035.18,25.8,145
"2017-03-04 13:05:21+00",15.4,21.4,,24.9,-502,480,50,1035.02,25.8,154.3
"2017-03-04 13:10:21+00",14.6,17.6,,25.1,-510,407,33,1035.03,26,166
"2017-03-04 13:15:21+00",17.7,19.7,,25.2,-531,580,48,1035.13,26.3,177.4
"2017-03-04 13:20:21+00",13.2,15.2,,25.1,-493,336,50,1035.04,26.4,187.7
"2017-03-04 13:25:21+00",13.7,15.7,,25.2,-561,242,35,1034.89,26.5,197.3
"2017-03-04 13:30:21+00",11.8,14.8,,25.4,-513,49,28,1034.94,26.8,206.5
"2017-03-04 13:35:21+00",12.2,14.2,,25.4,-535,64,39,1034.78,27,216.3
"2017-03-04 13:40:21+00",13.3,16.3,,25.6,-568,182,62,1034.68,27.2,227.3
"2017-03-04 13:45:21+00",14.0,17.0,,25.5,-562,270,31,1034.72,27.2,238.2
"2017-03-04 13:50:21+00",13.5,14.5,,25.6,-581,159,56,1034.6,27.3,247.5
"2017-03-04 13:55:21+00",14.1,16.1,,25.8,-588,217,37,1034.65,27.5,254.8
"2017-03-04 14:00:21+00",17.6,21.6,,25.9,-728,312,35,1034.52,27.5,253.7
"2017-03-04 14:05:21+00",14.9,16.9,,26,-570,351,31,1034.51,27.5,269.1
"2017-03-04 14:10:21+00",16.4,19.4,,26.4,-678,302,96,1034.52,28,276.1
"2017-03-04 14:15:21+00",13.1,17.1,,26.5,-536,235,94,1034.4,28.1,274.8
"2017-03-04 14:20:21+00",18.4,22.4,,26.6,-725,383,67,1034.28,28.4,293
"2017-03-04 14:25:21+00",12.6,14.6,,26.4,-479,293,48,1034.34,28.4,308
"2017-03-04 14:30:21+00",18.2,22.2,,27,-727,373,61,1034.17,28.7,322.5
"2017-03-04 14:35:21+00",14.2,18.2,,26.5,-572,279,24,1034.16,28.7,334.6
"2017-03-04 14:40:21+00",14.0,17.0,,26.8,-567,270,76,1034.12,28.6,55.6
"2017-03-04 14:45:21+00",19.0,22.0,,26.8,-840,196,80,1034.05,28.6,106.9
"2017-03-04 14:50:21+00",17.6,21.6,,27,-596,521,62,1034.1,28.7,176.8
"2017-03-04 14:55:21+00",18.5,19.5,,27.4,-628,531,39,1034.09,28.9,78.9
"2017-03-04 15:00:21+00",15.9,18.9,,27.4,-693,212,65,1034.01,28.8,100.8
"2017-03-04 15:05:21+00",21.7,24.7,,27.7,-882,422,58,1033.9,29.2,134.4
"2017-03-04 15:10:21+00",22.8,26.8,,28.1,-899,481,62,1033.81,30,401.2
"2017-03-04 15:15:21+00",25.2,28.2,,28.6,-931,640,86,1033.7,30.7,315.4
"2017-03-04 15:20:21+00",21.7,24.7,,28.7,-643,726,80,1033.67,30.6,407.7
"2017-03-04 15:25:21+00",23.1,27.1,,28.8,-859,579,62,1033.57,30.5,378.5
"2017-03-04 15:30:21+00",24.2,29.2,,28.5,-869,637,75,1033.78,30.4,419.9
"2017-03-04 15:35:21+00",17.0,20.0,,28.4,-679,341,34,1033.59,30.6,441.7
"2017-03-04 15:40:21+00",23.8,25.8,,28.9,-835,664,76,1033.66,30.6,64.7
"2017-03-04 15:45:21+00",22.7,29.7,,29.4,-734,723,87,1033.7,30.8,315
"2017-03-04 15:50:21+00",19.6,29.6,,28.8,-624,605,67,1033.65,30.3,230.2
"2017-03-04 15:55:21+00",20.1,23.1,,29.3,-841,352,98,1033.49,30.8,462.9
"2017-03-04 16:00:21+00",26.7,29.7,,28.9,-875,806,70,1033.55,30.7,124.3
"2017-03-04 16:05:21+00",24.6,27.6,,28.8,-801,765,69,1033.61,29.9,172.1
"2017-03-04 16:10:21+00",22.1,25.1,,29.1,-809,589,87,1033.61,30.2,424.1
"2017-03-04 16:15:21+00",14.6,17.6,,29.1,-446,468,56,1033.58,31,189.4
"2017-03-04 16:20:21+00",22.3,26.3,,29.1,-733,666,73,1033.51,30.6,408.6
"2017-03-04 16:25:21+00",21.3,26.3,,29.6,-716,644,64,1033.37,31.4,275.1
"2017-03-04 16:30:21+00",24.2,29.2,,29,-965,484,49,1033.23,30.7,205.6
"2017-03-04 16:35:21+00",16.5,21.5,,29.1,-627,423,40,1033.22,31.2,312.6
"2017-03-04 16:40:21+00",22.4,24.4,,29.3,-728,695,40,1033.1,30.8,454.1
"2017-03-04 16:45:21+00",26.0,30.0,,29.4,-1056,488,47,1032.91,31.5,211.8
"2017-03-04 16:50:21+00",21.7,25.7,,29.8,-584,771,71,1032.99,31.3,416.9
"2017-03-04 16:55:21+00",16.4,17.4,,29.4,-498,534,23,1032.79,31.6,279.3
"2017-03-04 17:00:21+00",24.6,28.6,,30.1,-747,796,62,1032.66,31.6,126.4
"2017-03-04 17:05:21+00",21.7,25.7,,30.1,-551,776,65,1032.62,31.3,163.6
"2017-03-04 17:10:21+00",20.9,28.9,,29.9,-758,548,68,1032.52,31.5,85.9
"2017-03-04 17:15:21+00",25.4,26.4,,29.8,-801,804,52,1032.54,31.4,366.6
"2017-03-04 17:20:21+00",27.7,31.7,,30.1,-919,833,85,1032.47,31.3,94.9
"2017-03-04 17:25:21+00",22.8,25.8,,30.3,-687,740,103,1032.39,31.2,181.7
"2017-03-04 17:30:21+00",26.6,29.6,,30.3,-799,870,54,1032.36,31.3,308.5
"2017-03-04 17:35:21+00",28.1,32.1,,30.7,-935,850,79,1032.29,31.7,211
"2017-03-04 17:40:21+00",23.8,27.8,,30.7,-734,769,103,1032.21,31.7,481.3
"2017-03-04 17:45:21+00",20.2,26.2,,30.3,-347,812,74,1032.21,31.7,80.9
"2017-03-04 17:50:21+00",19.7,22.7,,30.3,-582,667,75,1032.23,31.4,81.1
"2017-03-04 17:55:21+00",23.7,27.7,,30.1,-587,867,44,1032.18,31.3,84.6
"2017-03-04 18:00:21+00",21.0,25.0,,30.3,-583,728,38,1032.12,31.4,74.1
"2017-03-04 18:05:21+00",22.0,29.0,,31.3,-722,675,98,1032.12,32.3,278
"2017-03-04 18:10:21+00",21.9,24.9,,30.8,-726,657,62,1032,32,251.9
"2017-03-04 18:15:21+00",25.3,28.3,,31.4,-616,934,57,1031.86,33.1,106.7
"2017-03-04 18:20:21+00",24.5,28.5,,30.7,-645,874,45,1031.84,32.1,98.8
"2017-03-04 18:25:21+00",18.3,21.3,,31.1,-491,648,105,1031.72,32.3,102
"2017-03-04 18:30:21+00",25.0,27.0,,31,-693,867,63,1031.79,32.1,145.7
"2017-03-04 18:35:21+00",21.5,25.5,,31.1,-731,630,59,1031.65,32.4,328.3
"2017-03-04 18:40:21+00",20.8,23.8,,31.3,-611,697,48,1031.58,32.5,93.4
"2017-03-04 18:45:21+00",23.0,27.0,,31.3,-674,776,77,1031.62,32.4,79.9
"2017-03-04 18:50:21+00",25.3,28.3,,31.2,-610,949,61,1031.57,32.3,240.9
"2017-03-04 18:55:21+00",20.2,23.2,,31.5,-598,674,73,1031.57,32.9,94.1
"2017-03-04 19:00:21+00",17.6,19.6,,31.3,-447,617,57,1031.57,32.6,196.3
"2017-03-04 19:05:21+00",28.4,32.4,,31.6,-703,1061,75,1031.43,33.2,310.8
"2017-03-04 19:10:21+00",21.5,24.5,,31.9,-429,847,53,1031.43,33.9,364
"2017-03-04 19:15:21+00",25.2,29.2,,31.8,-884,703,77,1031.28,33.2,55.3
"2017-03-04 19:20:21+00",23.7,26.7,,32.1,-617,858,56,1031.37,33.7,205.4
"2017-03-04 19:25:21+00",18.1,21.1,,32.2,-430,685,56,1031.34,33.7,110.2
"2017-03-04 19:30:21+00",20.5,24.5,,32.7,-626,679,81,1031.34,34.3,251.5
"2017-03-04 19:35:21+00",23.9,27.9,,32.4,-587,886,47,1031.22,34.6,371.2
"2017-03-04 19:40:21+00",19.2,23.2,,32.8,-578,638,87,1031.14,34.7,352
"2017-03-04 19:45:21+00",25.6,29.6,,32.7,-742,874,62,1031.19,35.2,340.1
"2017-03-04 19:50:21+00",23.6,28.6,,32.6,-583,869,71,1031.09,34.7,83.2
"2017-03-04 19:55:21+00",27.3,30.3,,32.2,-744,963,78,1031.15,33.7,60.2
"2017-03-04 20:00:21+00",27.0,30.0,,32.3,-730,962,51,1031.1,33.8,153.2
"2017-03-04 20:05:21+00",29.7,34.7,,32.2,-785,1052,73,1031.04,33.4,48.4
"2017-03-04 20:10:21+00",28.8,31.8,,32.2,-797,1002,65,1031.19,32.9,33.5
"2017-03-04 20:15:21+00",24.4,29.4,,32.9,-664,860,70,1031.2,33.5,309.2
"2017-03-04 20:20:21+00",26.9,30.9,,33,-600,1035,78,1031.11,34.5,286.8
"2017-03-04 20:25:21+00",23.9,29.9,,33.3,-672,822,93,1031.06,35.2,270.3
"2017-03-04 20:30:21+00",21.8,28.8,,33.6,-673,707,100,1031.1,35.6,137.3
"2017-03-04 20:35:21+00",29.0,33.0,,32.8,-1006,833,82,1031.08,33.7,46.6
"2017-03-04 20:40:21+00",26.0,31.0,,32.8,-668,938,73,1031.07,33.7,14.9
"2017-03-04 20:45:21+00",23.3,28.3,,33,-785,688,68,1031.14,33.4,16.3
"2017-03-04 20:50:21+00",27.3,32.3,,33.2,-840,882,119,1031.12,33.7,19.5
"2017-03-04 20:55:21+00",27.4,30.4,,32.8,-802,923,72,1031.2,33.2,16.4
"2017-03-04 21:00:21+00",19.0,23.0,,32.8,-540,656,83,1031.13,33.2,18.5
"2017-03-04 21:05:21+00",29.1,32.1,,33,-926,936,80,1031.13,33.2,97.4
"2017-03-04 21:10:21+00",20.2,22.2,,32.8,-623,652,57,1031.3,33.3,170.3
"2017-03-04 21:15:21+00",24.2,27.2,,33,-555,925,61,1031.35,33.8,58.4
"2017-03-04 21:20:21+00",28.1,33.1,,32.8,-770,969,108,1031.38,33.7,87
"2017-03-04 21:25:21+00",28.9,33.9,,32.8,-894,934,84,1031.36,33.5,117.2
"2017-03-04 21:30:21+00",22.6,25.6,,32.7,-564,846,70,1031.37,33.5,121.3
"2017-03-04 21:35:21+00",27.9,31.9,,32.7,-819,936,65,1031.37,33.5,105.5
"2017-03-04 21:40:21+00",24.3,27.3,,32.9,-863,674,77,1031.37,33.6,100.9
"2017-03-04 21:45:21+00",22.7,24.7,,32.9,-725,731,85,1031.52,33.4,88.4
"2017-03-04 21:50:21+00",24.2,26.2,,32.7,-441,966,47,1031.6,33.7,76
"2017-03-04 21:55:21+00",21.5,24.5,,32.5,-406,852,73,1031.62,33.5,65.6
"2017-03-04 22:00:21+00",25.2,29.2,,32.4,-376,1049,66,1031.58,33.5,57.8
"2017-03-04 22:05:21+00",23.8,26.8,,32.2,-366,999,56,1031.69,33.3,46.2
"2017-03-04 22:10:21+00",19.6,24.6,,32.1,-379,784,56,1031.8,33.1,34.9
"2017-03-04 22:15:21+00",19.5,22.5,,32.2,-394,770,40,1031.86,33.1,25
"2017-03-04 22:20:21+00",24.8,27.8,,32.4,-550,955,73,1032.07,32.9,18.6
"2017-03-04 22:25:21+00",22.4,27.4,,31.9,-325,942,59,1032.23,32.6,5
"2017-03-04 22:30:21+00",23.9,26.9,,31.8,-402,978,62,1032.25,32.2,1.5
"2017-03-04 22:35:21+00",26.8,32.8,,31.6,-616,1023,87,1032.32,32,0
"2017-03-04 22:40:21+00",22.0,26.0,,31.4,-464,880,59,1032.37,31.5,0
"2017-03-04 22:45:21+00",20.8,23.8,,31.2,-493,777,46,1032.53,31.1,0
"2017-03-04 22:50:21+00",20.2,23.2,,31.1,-535,719,56,1032.49,30.8,0
"2017-03-04 22:55:21+00",23.7,25.7,,31,-489,926,42,1032.54,30.6,0
"2017-03-04 23:00:21+00",17.9,18.9,,30.6,-237,762,38,1032.73,30.2,0
"2017-03-04 23:05:21+00",18.9,21.9,,30,-211,810,36,1032.86,29.7,0
"2017-03-04 23:10:21+00",17.1,20.1,,29.7,-177,724,24,1032.94,29.2,0
"2017-03-04 23:15:21+00",18.2,22.2,,29.7,-338,738,65,1033.09,29.1,0
"2017-03-04 23:20:21+00",18.3,23.3,,29.5,-121,796,10,1033.15,28.8,0
"2017-03-04 23:25:21+00",15.1,19.1,,29.1,-84,654,21,1033.2,28.6,0
"2017-03-04 23:30:21+00",16.4,19.4,,28.8,-44,724,22,1033.41,28.2,0
"2017-03-04 23:35:21+00",16.5,19.5,,28.6,-25,724,24,1033.4,27.9,0
"2017-03-04 23:40:21+00",20.5,24.5,,28.8,-188,884,28,1033.47,27.9,0
"2017-03-04 23:45:21+00",15.4,20.4,,28.4,-163,661,41,1033.62,27.7,0
"2017-03-04 23:50:21+00",18.9,20.9,,28.4,-206,806,27,1033.73,27.6,0
"2017-03-04 23:55:21+00",15.0,18.0,,28.1,-160,639,30,1033.76,27.5,0
